User: anonymous   Login
Location: Newark
(45.5167°N, 11.1667°E)
Time: 18:49:19
(UTC+00:00)
Language:

Tiros 1 despin weight - Orbit

View from above orbital plane
View from above orbital plane
View from above satellite
View from above satellite

Ground track
Ground track

The orbit data is extracted from the following two-line orbital elements,

1   115U 60002D   19348.70563963 -.00000109  00000-0  14144-4 0  9998
2   115  48.1669  87.3711 0034499 151.5489 208.7316 14.83517219185396
Epoch (UTC): 14 December 2019 16:56:07
Eccentricity: 0.0034499
inclination: 48.1669°
perigee height: 594 km
apogee height: 642 km
right ascension of ascending node: 87.3711°
argument of perigee: 151.5489°
revolutions per day: 14.83517219
mean anomaly at epoch: 208.7316°
orbit number at epoch: 18539

The dashed part of the orbit path shows where the satellite is in the earth's shadow,  

DLR